Home   Weather   Chatham-Kent   Past weeks

Flag for Canada Past Weather in Chatham-Kent, Ontario, Canada — Yesterday and Last 2 Weeks

Now
39 °F

Fog.


Feels Like: 32 °F
Forecast: 35 / 37 °F
Wind: 12 mph from West

Location: Windsor Weather Station

Current Time: Jan 18, 2017 at 3:10:23 am

Latest Report: Jan 18, 2017 at 2:00 am


Visibility: 6 mi

Pressure: 29.93 "Hg

Humidity: 87%

Dew Point: 36 °F

Location of Chatham-KentLocation

Past Weather in Chatham-Kent — Graph

°F

Chatham-Kent Temperature Yesterday

Maximum temperature yesterday: 46 °F (at 3:00 pm)
Minimum temperature yesterday: 32 °F (at 12:00 am)
Average temperature yesterday: 38 °F

High & Low Weather Summary for the Past Weeks

 TemperatureHumidityPressure
High54 °F (Jan 12, 2:00 am)100% (Jan 3, 1:03 am)30.80 "Hg (Jan 3, 1:03 am)
Low3 °F (Jan 6, 8:00 am)53% (Jan 8, 1:00 pm)29.45 "Hg (Jan 10, 8:00 pm)
Average27 °F83%30.12 "Hg
* Reported Jan 3 1:03 am — Jan 18 1:00 am, Chatham-Kent, Weather by CustomWeather, © 2017

Note: Actual official high and low records may vary slightly from our data, if they occured in-between our weather recording intervals... More about our weather records

Advertising

Chatham-Kent Weather History for the Previous 24 Hours

Scroll right to see more
 ConditionsComfort  
Time TempWeatherWind HumidityBarometerVisibility
1:00 am
Wed, Jan 18
39 °FLow clouds.13 mph93%29.93 "Hg10 mi
12:00 am39 °FLow clouds.13 mph93%29.92 "Hg10 mi
11:00 pm
Tue, Jan 17
39 °FLow clouds.10 mph93%29.92 "Hg8 mi
10:00 pm39 °FLow clouds.13 mph93%29.91 "Hg10 mi
9:13 pm41 °FLow clouds.14 mph87%29.90 "Hg12 mi
9:00 pm41 °FOvercast.15 mph93%29.89 "Hg15 mi
8:38 pm41 °FOvercast.14 mph93%29.88 "Hg15 mi
8:20 pm41 °FLow clouds.12 mph93%29.88 "Hg15 mi
8:00 pm41 °FDrizzle. Low clouds.15 mph93%29.87 "Hg8 mi
7:00 pm43 °FFog.17 mph93%29.86 "Hg6 mi
6:06 pm43 °FFog.17 mph93%29.84 "Hg5 mi
6:00 pm43 °FFog.16 mph93%29.84 "Hg5 mi
5:00 pm45 °FDrizzle. Fog.18 mph93%29.82 "Hg4 mi
4:30 pm45 °FSprinkles. Fog.14 mph93%29.81 "Hg6 mi
4:00 pm45 °FOvercast.13 mph93%29.80 "Hg7 mi
3:00 pm46 °FOvercast.13 mph93%29.78 "Hg7 mi
2:00 pm45 °FFog.9 mph100%29.75 "Hg5 mi
1:44 pm45 °FFog.9 mph100%29.76 "Hg5 mi
1:35 pm45 °FFog.10 mph100%29.76 "Hg4 mi
1:15 pm45 °FFog.12 mph100%29.76 "Hg3 mi
1:00 pm45 °FFog.12 mph100%29.77 "Hg2 mi
12:37 pm43 °FFog.6 mph100%29.77 "Hg1 mi
12:00 pm39 °FFog.2 mph100%29.78 "Hg1 mi
11:27 am39 °FFog.No wind100%29.78 "Hg0 mi
11:18 am39 °FFog.No wind100%29.78 "Hg0 mi
11:00 am39 °FLight rain. Fog.3 mph100%29.78 "Hg0 mi
10:46 am39 °FFog.3 mph100%29.78 "Hg0 mi
10:00 am37 °FLight rain. Fog.2 mph100%29.77 "Hg0 mi
9:00 am37 °FLight rain. Fog.2 mph100%29.81 "Hg0 mi
8:30 am36 °FLight rain. Fog.3 mph100%29.82 "Hg0 mi
8:00 am36 °FFog.3 mph100%29.83 "Hg0 mi
7:53 am36 °FFog.5 mph100%29.83 "Hg0 mi
7:28 am36 °FDrizzle. Fog.5 mph100%29.84 "Hg0 mi
7:00 am36 °FFog.6 mph100%29.85 "Hg0 mi
6:17 am36 °FFog.6 mph100%29.88 "Hg0 mi
6:00 am36 °FDrizzle. Fog.7 mph100%29.89 "Hg0 mi
5:49 am36 °FDrizzle. Fog.8 mph100%29.89 "Hg1 mi
5:36 am36 °FFog.9 mph100%29.90 "Hg1 mi
5:03 am34 °FLight rain. Fog.10 mph100%29.92 "Hg1 mi
4:26 am34 °FLight rain. Fog.10 mph100%29.95 "Hg1 mi
4:00 am34 °FLight rain. Fog.12 mph93%29.97 "Hg1 mi
3:44 am32 °FLight rain. Ice fog.14 mph100%29.97 "Hg2 mi
3:00 am32 °FLight rain. Ice fog.8 mph100%30.03 "Hg3 mi
Weather by CustomWeather, © 2017

See weather overviewHow to use our weather pages